List of Articles
번호 분류 제목 글쓴이 날짜 조회 수 추천 수
5459 튜닝/성능 금발미녀의 GT-R file Walter 2018.07.11 105 0
5458 길거리 길거리 람보르기니 차량 Walter 2018.07.11 460 0
5457 튜닝/성능 The Hilux Tonka Concept Walter 2018.07.11 18 0
5456 홍보영상 닛산, TeRRA (테라)SUV Walter 2018.07.11 8 0
5455 홍보영상 The All New Jeep wrangler! Walter 2018.07.11 7 0
5454 튜닝/성능 머스탱 헤드라이트 튜닝 닉넴사라짐 2018.07.11 17 0
5453 홍보영상 CITROEN prefers TOTAL 50years 닉넴사라짐 2018.07.11 13 0
5452 오프로드 물속성능이 강한 허머 닉넴사라짐 2018.07.11 12 0
5451 홍보영상 2018 THE NEW LEXUS ES300h Hybrid 닉넴사라짐 2018.07.11 6 0
5450 홍보영상 2019 BMW X5 홍보편 닉넴사라짐 2018.07.11 14 0
5449 오프로드 ‘작은 고추가 맵다’! 닉넴사라짐 2018.07.11 15 0
5448 홍보영상 2019 Audi Q8 48V mild-hybrid system 닉넴사라짐 2018.07.11 6 0
5447 홍보영상 재규어 I-PACE 공식홍보편(1) Benjamin 2018.07.11 8 0
5446 홍보영상 재규어 I-PACE 공식홍보편(2) Benjamin 2018.07.11 7 0
5445 튜닝/성능 Audi 아우디 A4 DTM 제작중~ Benjamin 2018.07.11 15 0
5444 튜닝/성능 토요타 C-HR 튜닝버전 수현 2018.07.11 22 0
5443 홍보영상 신형 볼보 S60 홍보편 강냉이털기 2018.07.11 31 0
5442 홍보영상 마쯔다 광고영상 강냉이털기 2018.07.11 10 0
5441 튜닝/성능 위엄감 쩌는 포드 F-150 Raptor-Vossen S17-02 튜닝 강냉이털기 2018.07.11 10 0
5440 홍보영상 2018 아우디 A5 창의적인 광고 강냉이털기 2018.07.11 12 0
5439 튜닝/성능 100마력엔진 장착한 놀이감 강냉이털기 2018.07.11 12 0
5438 길거리 비키니 입으면 주유 공짜(?) file 패트릭 2018.07.10 474 1
» 튜닝/성능 공사장에서 열일중인 튜닝픽업트럭! Barbie 2018.07.10 250 0
목록
Board Pagination Prev 1 ... 17 18 19 20 21 22 23 24 25 26 ... 259 Next
/ 259